Погода в Архангельском

Россия / Воронежская область     51°26′37″N   40°55′54″E
темп.,
°C
ветер,
м/с
пор.,
м/с
влажн.,
%
обл.,
%
осадки,
мм/ч
давл.,
гПа
погр.,
м
10 мая, пн
пн1000:00+5ссз5989100 0.1 1017950
03:00+5ссз61092100 0.1 1017808
06:00+5ссз71390100 0.1 1017704
09:00+6ссз81491100 0.1 1016699
12:00+7с101793100 0.6 1014747
15:00+8ссв112095100 3.9 1013639
18:00+10ссв112193100 1.6 1012579
21:00+12св91794100 1.9 1014558
11 мая, вт
вт1100:00+11ссв81695100 0.1 1013497
03:00+9юв71196100 2.8 1015555
06:00+8в3897100 4.2 1017556
09:00+9вюв797468 4.9 10201088
12:00+11вюв81063100 0.0 10211428
15:00+12в7116580 0.1 10231604
18:00+12юв7107425 0.4 10241139
21:00+7в338926 0.5 102647
12 мая, ср
ср1200:00+7всв358421 0.0 102668
03:00+6св4990100 0.0 1024154
06:00+8св51285100 0.0 1023362
09:00+9с2492100 2.8 1020203
12:00+8зсз348998 8.6 1019343
15:00+14ююв356466 8.6 10201237
18:00+14в58735 0.0 1019571
21:00+10всв41087100 0.0 1020190
13 мая, чт
чт1300:00+9всв4993100 0.0 1019167
03:00+9в3597100 0.0 101893
06:00+11вюв129796 0.0 101769
09:00+16ююз117915 0.0 1017548
12:00+20ю235729 0.1 10181634
15:00+21юв345391 0.1 10171816
18:00+20в35695 0.0 1017161
21:00+15в3479100 0.0 101847
14 мая, пт
пт1400:00+14всв3687100 0.0 1017115
03:00+14в4790100 0.0 1017112
06:00+15в3890100 0.0 1017166
09:00+20вюв5875100 0.0 1016414
12:00+24юв576154 0.0 10161175
15:00+25юв686285 0.0 10141455
18:00+23юв61170100 0.0 1013464
21:00+18юв3684100 0.0 101387